SCP
0 0 0 0 0 0 0 0 0 0 0 0 0 0 0 0 0 0 0 0 0 0 0 0 0 0 0 0 0 0 0 0 0 0 0 0 0 0 0 0 0 0 0 0 0 0 0 0 0
0 0 0 0 0 0 0 0 0 0 0 0 0 0 0 0 0 0 0 0 0 0 0 0 0 0 0 0 0 0 0 0 0 0 0 0 0 0 0 0 0 0 0 0 0 0 0 0 0
0 0 0 0 0 0 0 0 0 0 0 0 0 0 0 0 0 0 0 0 0 0 0 0 0 0 0 0 0 0 0 0 0 0 0 0 0 0 0 0 0 0 0 0 0 0 0 0 0
0 0 0 0 0 0 0 0 0 0 0 0 0 0 0 0 0 0 0 0 0 0 0 0 0 0 0 0 0 0 0 0 0 0 0 0 0 0 0 0 0 0 0 0 0 0 0 0 0
0 0 0 0 0 0 0 0 0 0 0 0 0 0 0 0 0 0 0 0 0 0 0 0 0 0 0 0 0 0 0 0 0 0 0 0 0 0 0 0 0 0 0 0 0 0 0 0 0
0 0 0 0 0 0 0 0 0 0 0 0 0 0 0 0 0 0 0 0 0 0 0 0 0 0 0 0 0 0 0 0 0 0 0 0 0 0 0 0 0 0 0 0 0 0 0 0 0
0 0 0 0 0 0 0 0 0 0 0 0 0 0 0 0 0 0 0 0 0 0 0 0 0 0 0 0 0 0 0 0 0 0 0 0 0 0 0 0 0 0 0 0 0 0 0 0 0
0 0 0 0 0 0 0 0 0 0 0 0 0 0 0 0 0 0 0 0 0 0 0 0 0 0 0 0 0 0 0 0 0 0 0 0 0 0 0 0 0 0 0 0 0 0 0 0 0
0 0 0 0 0 0 0 0 0 0 0 0 0 0 0 0 0 0 0 0 0 0 0 0 0 0 0 0 0 0 0 0 0 0 0 0 0 0 0 0 0 0 0 0 0 0 0 0 0
0 0 0 0 0 0 0 0 0 0 0 0 0 0 0 0 0 0 0 0 0 0 0 0 0 0 0 0 0 0 0 0 0 0 0 0 0 0 0 0 0 0 0 0 0 0 0 0 0
0 0 0 0 0 0 0 0 0 0 0 0 0 0 0 0 0 0 0 0 0 0 0 0 0 0 0 0 0 0 0 -0 0 0 0 0 0 0 0 0 0 0 0 0 0 0 0 0 0
0 0 0 0 0 0 0 0 0 0 0 0 0 0 0 0 0 0 0 0 0 0 0 0 0 0 0 0 0 0 0 0 0 0 0 0 0 0 0 0 0 0 0 0 0 0 0 0 0
0 0 0 0 0 0 0 0 0 0 0 0 0 0 0 0 0 0 0 0 0 0 0 0 0 0 0 0 0 0 0 0 0 0 0 0 0 0 0 0 0 0 0 0 0 0 0 0 0
0 0 0 0 0 0 0 0 0 0 0 0 0 0 0 0 0 0 0 0 -0 0 0 0 0 0 0 0 0 0 0 0 0 0 0 0 0 0 0 0 0 0 0 0 0 0 0 0 0
0 0 0 0 0 0 0 0 0 0 0 0 0 0 0 0 0 0 0 0 -0 -0 0 0 0 0 0 0 0 0 0 0 0 0 0 0 0 0 0 0 0 0 0 0 0 0 0 0 0
0 0 0 0 0 0 0 0 0 0 0 0 0 0 0 0 0 0 0 0 -0 -0 -0 0 0 0 0 0 0 0 0 0 0 0 0 0 0 0 0 0 0 0 0 0 0 0 0 0 0
0 0 0 0 0 0 0 0 0 0 0 0 0 0 0 0 0 0 0 0 0 -0 -0 0 0 0 0 0 0 0 0 0 0 0 0 0 0 0 0 0 0 0 0 0 0 0 0 0 0
0 0 0 0 0 0 0 0 0 0 0 0 0 0 0 0 0 0 0 0 0 0 0 0 0 0 0 0 0 0 0 0 0 0 0 0 0 0 0 0 0 0 0 0 0 0 0 0 0
0 0 0 0 0 0 0 0 0 0 0 0 0 0 0 0 0 0 0 0 0 0 0 0 0 0 0 0 0 0 0 0 0 0 0 0 0 0 0 0 0 0 0 0 0 0 0 0 0
0 0 0 0 0 0 0 0 0 0 0 0 0 0 0 0 0 0 0 0 0 0 0 0 0 0 0 0 0 0 0 0 0 0 0 0 0 0 0 0 0 0 0 0 0 0 0 0 0
0 0 0 0 0 0 0 0 0 0 0 0 0 0 0 0 0 0 0 0 0 0 0 0 0 0 0 0 0 0 0 0 0 0 0 0 0 0 0 0 0 0 0 0 0 0 0 0 0
0 0 0 0 0 0 0 0 0 0 0 0 0 0 0 0 0 0 0 0 0 0 0 0 0 0 0 0 0 0 0 0 0 0 0 0 0 0 0 0 0 0 0 0 0 0 0 0 0
0 0 0 0 0 0 0 0 0 0 0 0 0 0 0 0 0 0 0 0 0 0 0 0 0 0 0 0 0 0 0 0 0 0 0 0 0 0 0 0 0 0 0 0 0 0 0 0 0
0 0 0 0 0 0 0 0 0 0 0 0 0 0 0 0 0 0 0 0 0 0 0 0 0 0 0 0 0 0 0 0 0 0 0 0 0 0 0 0 0 0 0 0 0 0 0 0 0
0 0 0 0 0 0 0 0 0 0 0 0 0 0 0 0 0 0 0 0 0 0 0 0 0 0 0 0 0 0 0 0 0 0 0 0 0 0 0 0 0 0 0 0 0 0 0 0 0
0 0 0 0 0 0 0 0 0 0 0 0 0 0 0 0 0 0 0 0 0 0 0 0 0 0 0 0 0 0 0 0 0 0 0 0 0 0 0 0 0 0 0 0 0 0 0 0 0
0 0 0 0 0 0 0 0 0 0 0 0 0 0 0 0 0 0 0 0 0 0 0 0 0 0 0 0 0 0 0 0 0 0 0 0 0 0 0 0 0 0 0 0 0 0 0 0 0
0 0 0 0 0 0 0 0 0 0 0 0 0 0 0 0 0 0 0 0 0 0 0 0 0 0 0 0 0 0 0 0 0 0 0 0 0 0 0 0 0 0 0 0 0 0 0 0 0
0 0 0 0 0 0 0 0 0 0 0 0 0 0 0 0 0 0 0 0 0 0 0 0 0 0 0 0 0 0 0 0 0 0 0 0 0 0 0 0 0 0 0 0 0 0 0 0 0
0 0 0 0 0 0 0 0 0 0 0 0 0 0 0 0 0 0 0 0 0 0 0 0 0 0 0 0 0 0 0 0 0 0 0 0 0 0 0 0 0 0 0 0 0 0 0 0 0
Wind_Speed
4 2 2 3 6 6 4 2 2 3 4 5 8 9 8 6 4 4 2 5 7 5 3 4 6 7 8 8 8 9 9 9 9 9 10 10 10 10 10 11 11 11 11 10 10 10 9 9 9
2 1 3 5 6 4 2 1 4 4 5 6 8 8 7 6 4 5 3 6 7 5 3 5 7 8 8 9 9 9 9 10 10 10 9 10 10 10 10 11 11 11 11 10 9 9 8 9 8
1 1 4 5 4 3 3 2 5 6 6 5 5 5 5 4 3 3 5 8 6 5 3 5 8 8 9 9 9 9 9 9 9 9 9 9 9 9 10 10 10 10 10 10 9 9 8 9 9
2 4 5 6 6 2 4 4 5 6 6 6 6 5 4 2 3 5 7 8 7 4 3 5 8 9 9 8 8 8 8 9 9 9 9 9 9 9 9 10 9 10 10 9 9 9 9 9 9
3 5 6 5 5 3 4 5 5 6 4 6 7 6 3 2 5 8 8 8 7 5 3 5 9 9 9 9 8 8 8 8 8 8 8 8 8 9 9 9 9 9 9 9 9 9 9 9 9
4 5 5 4 4 3 3 5 7 8 7 7 7 5 1 1 4 6 7 6 6 6 4 4 8 9 8 8 8 8 7 7 7 7 7 8 8 8 8 9 9 8 8 8 9 9 9 10 10
5 5 4 4 4 4 3 4 6 6 6 4 5 5 1 1 2 6 6 6 5 6 5 3 4 5 7 8 7 7 6 6 6 6 7 7 7 7 7 8 8 8 8 9 8 9 9 9 10
5 5 4 3 4 2 2 4 5 6 5 4 4 6 4 4 3 4 5 4 4 4 4 4 3 3 3 3 6 6 5 5 6 5 5 6 6 6 6 6 7 8 8 8 8 8 9 9 9
5 6 3 3 4 3 3 6 4 5 6 4 3 4 5 5 4 4 3 2 3 4 4 4 4 3 3 3 3 4 4 3 3 3 4 4 2 3 3 5 6 7 7 7 8 8 8 9 8
6 4 2 3 5 5 4 5 4 5 6 4 4 4 5 4 5 4 4 3 3 4 4 4 4 4 3 3 2 1 0 0 0 1 1 1 1 1 3 4 5 5 6 6 6 7 7 6 4
4 5 3 4 5 7 6 4 4 6 3 4 6 7 6 6 4 4 3 3 3 3 4 5 4 4 4 2 2 1 0 0 0 1 2 2 2 2 2 2 3 4 4 3 4 4 3 4 3
5 4 4 4 5 6 5 4 4 4 4 6 9 8 7 6 5 4 4 3 3 3 3 4 4 3 3 2 2 2 1 1 1 1 3 3 2 2 1 1 2 2 2 3 3 3 4 4 4
5 3 5 5 6 6 7 5 4 3 4 7 8 7 6 5 4 4 4 4 4 4 4 5 4 4 3 2 2 2 1 1 1 1 2 4 3 2 2 1 2 2 2 3 3 3 4 4 4
4 4 4 5 6 5 7 3 3 2 6 7 7 6 5 5 4 3 4 4 4 4 4 4 4 4 4 3 2 2 2 1 2 2 3 4 3 3 2 2 2 2 2 3 3 3 4 3 3
4 5 3 1 3 3 6 3 0 3 7 7 6 5 4 3 4 5 5 5 5 5 4 5 5 4 4 4 3 2 2 2 2 2 3 3 3 3 3 3 2 2 3 4 4 4 3 4 4
3 3 1 2 2 3 6 1 3 4 8 6 4 4 3 2 3 4 5 5 5 5 4 4 5 5 4 3 3 2 2 2 2 2 2 3 3 4 4 3 3 2 3 3 3 3 4 3 3
2 1 1 1 1 3 4 3 3 4 7 6 5 4 3 2 3 3 4 5 5 5 5 4 5 5 4 4 3 3 3 3 2 2 2 2 3 4 4 3 3 3 3 3 3 3 3 3 3
2 2 2 1 1 4 4 2 2 3 6 6 5 4 4 3 4 3 4 4 5 4 5 5 5 4 4 3 3 3 3 2 2 2 2 3 3 4 4 3 3 3 3 3 3 3 2 2 2
3 3 3 3 3 4 3 3 3 4 4 4 4 5 5 4 3 3 4 4 4 4 5 5 4 3 3 2 2 2 1 1 1 1 2 2 3 3 3 3 3 3 3 3 3 3 3 2 2
3 3 1 1 2 3 3 2 3 4 6 7 7 7 6 4 3 3 4 3 4 4 4 4 4 4 3 2 2 2 1 0 0 1 2 2 2 3 4 4 3 3 3 3 3 3 2 1 1
1 2 2 2 0 1 3 2 2 1 1 3 4 5 6 8 7 5 4 4 4 4 4 4 4 4 3 3 2 2 2 2 2 2 1 1 1 2 3 3 3 3 3 3 3 3 3 2 0
2 3 2 2 2 1 2 1 4 2 1 1 2 3 5 6 5 5 6 5 5 4 4 4 4 3 2 3 3 3 2 1 1 1 0 1 1 2 2 3 3 3 2 3 2 3 2 3 1
4 3 1 1 1 1 0 2 5 0 2 4 3 4 5 6 6 6 6 5 4 4 4 4 4 3 2 3 4 3 2 1 1 0 1 1 1 1 2 3 3 3 2 2 2 2 2 2 2
2 3 5 4 4 1 3 4 4 3 5 4 4 4 5 6 6 5 4 4 4 3 3 3 4 3 2 3 3 3 3 3 2 1 1 0 0 1 1 2 2 3 2 2 2 2 3 2 2
4 6 4 5 3 3 2 3 5 5 5 6 6 6 6 6 6 5 5 4 4 4 3 3 3 2 1 2 2 3 3 4 4 3 2 2 1 0 1 1 1 2 2 2 2 3 2 2 2
2 7 6 3 3 3 3 1 4 3 3 3 4 5 5 5 5 6 6 6 5 4 4 4 3 2 2 1 1 2 3 2 2 3 3 3 2 2 2 2 2 2 2 2 2 2 2 2 2
2 2 5 5 1 0 2 1 3 2 3 3 4 4 5 5 5 6 6 5 5 5 4 4 4 3 2 2 1 1 2 2 2 2 2 2 2 2 2 2 2 2 2 3 3 2 1 2 1
3 4 4 4 2 1 2 2 4 4 3 3 4 5 5 5 5 5 5 5 5 5 4 4 4 3 3 2 2 1 1 1 1 2 2 2 2 2 2 2 2 2 2 3 3 2 1 2 1
0 1 3 3 4 4 2 5 6 8 7 6 7 7 7 7 6 5 5 5 5 4 4 4 3 3 2 2 2 1 1 1 1 1 2 3 2 3 3 3 3 2 2 2 3 2 2 2 1
4 4 5 4 2 3 3 6 4 7 6 6 6 6 6 6 6 5 5 4 3 4 4 3 3 3 3 3 2 2 2 1 2 1 2 2 2 2 3 3 3 3 3 3 3 3 3 3 2
Wind_Direction
317 337 84 59 54 56 63 41 79 68 63 58 69 77 77 64 85 125 205 138 134 139 129 112 101 97 92 89 85 82 83 82 79 79 83 85 87 89 88 86 86 84 82 80 81 81 82 82 80
333 18 63 56 75 77 62 62 71 81 125 117 78 76 77 73 87 112 117 136 135 137 132 118 108 102 97 93 88 85 84 82 82 80 82 86 87 87 88 88 89 87 84 80 78 78 78 80 79
305 56 74 63 72 108 114 114 98 83 83 85 78 53 65 91 103 130 146 143 135 129 125 121 113 106 103 100 97 94 91 87 85 84 83 86 90 91 90 90 89 88 87 84 82 81 77 78 78
64 48 55 69 74 76 125 138 117 97 64 57 89 66 53 61 126 140 140 141 135 133 132 129 122 114 109 107 103 98 95 93 89 87 86 88 92 93 93 94 94 92 90 87 84 80 76 76 78
73 72 64 67 77 71 88 107 100 88 77 74 88 92 68 7 108 129 137 140 141 145 144 137 129 122 117 114 111 104 98 96 94 90 87 88 91 93 92 95 97 96 92 88 85 81 77 75 76
61 67 79 86 87 84 79 90 90 92 106 103 97 102 96 131 118 137 138 144 149 151 149 142 138 133 127 121 116 110 105 100 97 92 89 90 93 96 95 96 98 96 93 90 86 81 79 75 76
96 84 100 113 95 82 98 93 95 109 107 109 119 103 131 213 150 143 143 143 145 146 145 149 152 142 140 134 128 122 114 110 106 99 93 91 98 101 100 99 99 98 96 93 89 84 79 73 73
115 96 83 92 102 90 94 89 99 102 101 108 108 125 168 202 171 136 133 137 141 146 152 160 171 163 151 146 145 137 129 121 117 111 101 92 91 93 100 98 100 101 99 95 92 84 79 74 72
82 79 95 136 138 130 103 96 79 78 91 73 78 135 160 153 130 113 103 108 144 158 166 171 178 180 176 175 165 149 142 130 119 114 116 94 65 63 81 95 100 99 94 91 91 83 77 70 66
80 98 142 155 144 132 111 108 110 87 82 77 74 93 121 119 122 134 147 151 154 169 184 179 181 183 182 176 149 168 161 151 160 166 147 111 110 104 96 87 88 90 89 83 85 81 67 59 50
101 128 126 98 118 118 106 92 91 113 111 159 151 148 140 131 138 153 163 153 160 161 160 166 174 171 166 159 147 144 135 163 158 150 147 128 114 95 71 58 48 49 61 58 66 67 61 63 65
101 113 115 115 113 108 115 113 97 123 174 168 153 151 143 139 148 152 154 150 136 121 118 129 143 140 146 139 135 126 121 97 90 108 123 122 115 106 97 78 69 61 57 66 61 72 73 70 70
101 116 110 113 105 111 107 106 121 135 146 138 137 137 141 145 149 153 148 141 124 112 105 120 121 116 119 116 116 110 110 102 93 81 113 125 124 127 115 88 80 79 78 82 79 78 78 76 73
141 121 111 115 110 110 110 108 103 164 142 135 140 147 150 150 150 133 132 131 126 119 123 126 118 108 101 102 105 111 105 92 77 75 98 119 127 127 116 100 89 87 90 90 93 93 86 78 79
104 97 74 113 137 144 108 60 132 169 139 138 146 154 150 146 143 151 155 149 140 132 129 126 122 107 100 96 93 95 97 92 76 66 83 107 118 119 113 109 103 103 100 93 87 82 81 81 75
61 80 104 255 155 146 111 135 259 152 136 149 157 153 140 141 141 154 152 140 139 132 126 125 119 109 102 98 85 75 75 77 70 66 74 101 116 116 111 109 110 110 99 93 91 85 82 70 63
38 131 191 274 203 142 125 180 233 155 142 153 159 155 143 132 129 151 145 143 146 143 136 126 120 119 113 102 87 79 74 70 61 66 74 96 109 109 110 112 116 112 98 93 99 82 90 83 70
212 176 170 204 214 122 133 184 212 166 149 159 163 161 155 158 178 167 152 148 142 139 135 134 128 128 114 97 78 60 51 43 43 52 67 94 108 107 107 113 114 113 106 94 96 97 83 95 91
176 153 163 213 193 133 151 169 205 174 156 163 168 169 170 181 193 155 151 138 128 127 131 140 135 135 120 103 97 86 60 12 19 33 70 90 106 111 109 113 112 116 119 127 124 109 90 73 87
108 119 140 232 185 140 150 197 222 181 180 180 177 179 177 170 162 161 154 140 135 135 132 136 141 144 141 136 140 142 137 119 32 17 48 72 96 115 128 128 127 128 119 115 119 118 109 87 93
95 162 187 185 9 85 101 2 315 280 182 174 174 179 177 173 174 173 159 151 137 136 145 145 145 140 139 129 105 83 59 33 25 24 16 20 99 108 126 140 139 142 138 146 151 143 137 138 37
232 234 189 165 105 254 144 230 280 254 245 199 188 178 176 174 167 166 161 158 155 158 152 142 136 126 131 130 126 128 132 157 221 216 72 21 79 105 120 135 141 145 142 148 164 149 144 136 145
218 237 219 207 145 35 247 149 283 251 231 240 212 189 177 165 162 164 162 163 159 150 145 143 136 132 131 137 142 138 145 182 203 53 86 39 22 62 113 128 135 140 142 156 154 136 132 137 150
172 49 26 45 72 343 245 158 266 228 218 225 214 194 183 171 165 163 150 130 129 122 127 139 141 146 154 139 143 150 165 167 159 170 158 297 351 359 91 127 133 140 140 152 155 144 135 138 136
73 77 32 7 17 259 255 140 241 237 214 193 187 185 182 173 165 158 144 138 139 139 141 142 136 143 164 157 159 173 178 174 182 188 188 187 205 242 232 161 149 150 152 152 143 130 132 137 134
180 137 152 187 220 276 346 212 259 261 209 172 163 163 161 163 168 167 166 163 160 157 149 147 147 147 156 172 205 192 174 169 189 196 188 191 202 216 204 176 171 172 156 143 135 127 139 133 139
145 178 172 143 167 307 303 310 324 10 87 116 134 141 160 171 171 170 168 165 166 166 166 164 159 158 171 191 193 195 187 179 195 203 186 196 214 207 187 167 164 174 157 145 133 122 138 128 135
158 156 97 117 151 248 280 249 229 223 197 167 162 169 178 174 169 166 172 175 180 179 172 170 168 175 185 186 193 182 206 192 189 191 189 194 207 193 165 159 161 165 160 150 134 130 132 118 118
142 106 117 126 153 156 230 263 221 198 193 183 187 187 181 177 179 177 178 188 186 175 169 174 176 179 190 197 198 187 201 191 164 174 201 194 187 179 168 171 167 158 154 149 140 148 136 125 111
176 182 144 144 230 169 182 264 256 190 189 178 184 192 185 179 178 174 173 170 173 173 176 179 184 191 202 199 190 198 199 182 164 183 216 193 170 175 166 158 156 156 153 146 143 145 134 135 136